Regional Weather Roundup
Issued by NWS

Home | Current Version | Previous Version | Text Only | Print | Product List | Glossary On
Versions: 1 2 3 4 5 6 7 8 9 10 11 12 13 14 15 16 17 18 19 20 21 22 23 24 25 26 27 28 29 30 31 32 33 34 35 36 37 38 39 40 41 42 43 44 45 46 47 48 49 50
000
ASUS43 KLMK 241402
RWRKY
KENTUCKY REGIONAL WEATHER ROUNDUP
NATIONAL WEATHER SERVICE LOUISVILLE KY
1000 AM EDT THU JUL 24 2014

NOTE "FAIR" INDICATES FEW OR NO CLOUDS BELOW 12,000 FEET
WITH NO SIGNIFICANT WEATHER AND/OR OBSTRUCTIONS TO VISIBILITY.

KYZ001>023-026-027-061>063-070>075-241500-
WESTERN AND SOUTH CENTRAL KENTUCKY

CITY           SKY/WX    TMP DP  RH WIND       PRES   REMARKS
PADUCAH        SUNNY     68  56  65 N8        30.07S
HENDERSON      CLOUDY    66  57  72 NE8       30.07R
OWENSBORO      MOSUNNY   68  61  78 N9        30.06R
HOPKINSVILLE   PTSUNNY   70  61  73 N7        30.05R
BOWLING GREEN  CLOUDY    72  65  78 N6        30.03R
GLASGOW        NOT AVBL
$$

KYZ024-025-028>034-038-045-046-053-241500-
NORTH CENTRAL KENTUCKY

CITY           SKY/WX    TMP DP  RH WIND       PRES   REMARKS
LOUISVILLE/SDF MOSUNNY   73  55  53 NE12      30.04S
LOUISVILLE/LOU SUNNY     71  55  56 NE8       30.05R
FORT KNOX      MOSUNNY   71  61  70 N10       30.03S
$$

KYZ035>037-039>044-047>052-055>060-089>105-241500-
NORTHEAST KENTUCKY

CITY           SKY/WX    TMP DP  RH WIND       PRES   REMARKS
LEXINGTON      CLOUDY    67  60  78 NE14      30.03R
COVINGTON      CLOUDY    65  56  72 N14       30.06S
FRANKFORT      MOSUNNY   68  58  70 VRB7      30.04R
$$

KYZ054-064>069-076>088-106>120-241500-
SOUTHEAST KENTUCKY

CITY           SKY/WX    TMP DP  RH WIND       PRES   REMARKS
JACKSON        FOG       69  67  93 CALM      29.99S VSB 1/2
LONDON         CLOUDY    71  68  90 W6        30.00S FOG
SOMERSET       NOT AVBL
MIDDLESBORO    NOT AVBL
MONTICELLO     CLOUDY    72  71  96 SW5       30.01S FOG
$$



USA.gov is the U.S. government's official web portal to all federal, state and local government web resources and services.